CZ-6A DEB, 54918

Orbit data source: Space-Track

CZ-6A DEB, 54918 is space debris in SSO originally from a launch on Fri, 11 Nov 2022 UTC launched from the Taiyaun Space Center, China (TSC). Debris objects in space refer to the collection of defunct objects orbiting the Earth. Examples of debris include non-operational satellites, rocket bodies, and fragments generated from explosions, collisions, or faulty payload assembly.

Loading next visibility...
Identifier
54918, 2022-151RF
Orbit
SSO
Country
Flag of CNCN / PRC
Related business
Manufacturer
SAST
Mission
Spacecraft
Bus & Motor
Unknown
Mass
Unknown
Launch date (UTC)
2022-11-11 (4 years ago)
Launch vehicle
Unknown
Launch site
Taiyaun Space Center, China (TSC)
Object type
Payload
Rocket body
Debris
Shape & HBR
Unknown shape, 0.1 m
Radar Cross Section
Medium (>0.1 m² and <1 m²)

Expand to show TLE details & history
Last TLE update: 19 hours ago

TLE from 19 hours ago
0 CZ-6A DEB
1 54918U 22151RF  26236.01677734  .00001574  00000-0  73562-3 0  9995
2 54918  98.8152 251.4862 0030786 105.2803 255.1781 14.21515306191955
Epoch: 2026-08-24T00:24Z
TLE epoch observation values (Epoch: 2026-08-24T00:24:09.562Z)
Latitude
0.00005°
Longitude
-86.85818°
Altitude
828.88 km
Speed
7.436 km/s
True Right ascension
16h 45m 56s
True Declination
0° 00' 00"
Sunlit
Object was in daylight at epoch
Visualization orbit readout
Latitude
Unknown
Longitude
Unknown
Altitude
Unknown
Speed
Unknown
Apparent Right ascension
Unknown
Apparent Declination
Unknown
Sunlit
N/A
Visualization observer readout
Local Sidereal Time
10:52:02
Azimuth
Unknown
Elevation
Unknown
Doppler factor
Unknown
Orbital elements
Apogee altitude
839.546 km
Perigee altitude
795.242 km
Semi-major axis
7,195.531 km
Eccentricity
0.00308
Inclination
98.8152°
RAAN
251.4862°
Arg. of periapsis
105.2803°
True anomaly
254.83739°
Mean anomaly
255.1781°
Eccentric anomaly
255.00771°
Mean motion
3.55589 °/min
Orbital period
101.24 mins
BSTAR
0.00073562
Loading maneuver chart data...
Computing Atmospheric mass density...
Loading historical data...
Loading historical data...
Loading historical data...
Loading historical data...
Loading historical data...
Loading historical data...
Loading historical data...

Documentation

Showing up to 5 results
|